TimeCST,TemperatureF,Dew PointF,Humidity,Sea Level PressureIn,VisibilityMPH,Wind Direction,Wind SpeedMPH,Gust SpeedMPH,PrecipitationIn,Events,Conditions,WindDirDegrees,DateUTC
12:12 AM,6.8,1.4,79,30.29,10.0,Calm,Calm,-,N/A,,Clear,0,2013-03-06 06:12:00
12:53 AM,3.2,-4.0,72,30.31,10.0,Calm,Calm,-,N/A,,Clear,0,2013-03-06 06:53:00
1:12 AM,3.2,-2.2,78,30.31,3.0,NW,3.5,-,N/A,,Haze,310,2013-03-06 07:12:00
1:32 AM,12.2,6.8,79,30.31,10.0,NW,3.5,-,N/A,,Mostly Cloudy,310,2013-03-06 07:32:00
1:53 AM,10.4,5.0,79,30.31,10.0,Calm,Calm,-,N/A,,Overcast,0,2013-03-06 07:53:00
2:12 AM,14.0,8.6,79,30.31,7.0,Calm,Calm,-,N/A,Snow,Light Snow,0,2013-03-06 08:12:00
2:32 AM,12.2,6.8,79,30.31,7.0,Calm,Calm,-,N/A,Snow,Light Snow,0,2013-03-06 08:32:00
2:53 AM,14.0,8.6,79,30.31,5.0,Calm,Calm,-,N/A,Snow,Light Snow,0,2013-03-06 08:53:00
3:12 AM,15.8,8.6,73,30.31,10.0,Calm,Calm,-,N/A,Snow,Light Snow,0,2013-03-06 09:12:00
3:53 AM,15.8,10.4,79,30.32,10.0,Calm,Calm,-,N/A,,Overcast,0,2013-03-06 09:53:00
4:12 AM,15.8,10.4,79,30.32,10.0,Calm,Calm,-,N/A,,Overcast,0,2013-03-06 10:12:00
4:33 AM,14.0,8.6,79,30.32,10.0,Calm,Calm,-,N/A,,Mostly Cloudy,0,2013-03-06 10:33:00
4:53 AM,14.0,8.6,79,30.33,10.0,Calm,Calm,-,N/A,,Overcast,0,2013-03-06 10:53:00
5:53 AM,17.6,10.4,73,30.34,10.0,NW,5.8,-,N/A,,Overcast,310,2013-03-06 11:53:00
6:32 AM,17.6,10.4,73,30.36,10.0,NW,4.6,-,N/A,Snow,Light Snow,320,2013-03-06 12:32:00
6:53 AM,17.6,10.4,73,30.36,10.0,NW,3.5,-,N/A,Snow,Light Snow,310,2013-03-06 12:53:00
7:12 AM,17.6,10.4,73,30.36,10.0,WNW,4.6,-,N/A,Snow,Light Snow,300,2013-03-06 13:12:00
7:32 AM,17.6,10.4,73,30.37,10.0,NW,6.9,-,N/A,Snow,Light Snow,320,2013-03-06 13:32:00
7:53 AM,17.6,10.4,73,30.37,10.0,NNW,6.9,-,N/A,Snow,Light Snow,340,2013-03-06 13:53:00
8:12 AM,17.6,10.4,73,30.38,10.0,NNW,9.2,-,N/A,Snow,Light Snow,340,2013-03-06 14:12:00
8:32 AM,17.6,10.4,73,30.38,7.0,NNW,8.1,-,N/A,Snow,Light Snow,340,2013-03-06 14:32:00
8:52 AM,17.6,10.4,73,30.38,5.0,NNW,4.6,-,N/A,Snow,Light Snow,330,2013-03-06 14:52:00
9:12 AM,19.4,10.4,68,30.38,5.0,NW,6.9,-,N/A,Snow,Light Snow,320,2013-03-06 15:12:00
9:32 AM,19.4,10.4,68,30.38,4.0,NNW,4.6,-,N/A,Snow,Light Snow,340,2013-03-06 15:32:00
9:52 AM,19.4,10.4,68,30.37,4.0,NNW,6.9,-,N/A,Snow,Light Snow,340,2013-03-06 15:52:00
10:13 AM,19.4,10.4,68,30.37,7.0,NW,5.8,-,N/A,Snow,Light Snow,320,2013-03-06 16:13:00
10:32 AM,21.2,10.4,63,30.37,7.0,NW,4.6,-,N/A,Snow,Light Snow,320,2013-03-06 16:32:00
10:52 AM,21.2,10.4,63,30.37,7.0,NNW,6.9,-,N/A,Snow,Light Snow,330,2013-03-06 16:52:00
11:13 AM,21.2,10.4,63,30.37,10.0,NNW,5.8,-,N/A,Snow,Light Snow,340,2013-03-06 17:13:00
11:32 AM,21.2,10.4,63,30.36,10.0,North,5.8,-,N/A,Snow,Light Snow,350,2013-03-06 17:32:00
11:52 AM,21.2,10.4,63,30.36,10.0,North,5.8,-,N/A,,Unknown,350,2013-03-06 17:52:00
12:13 PM,21.2,10.4,63,30.35,7.0,North,3.5,-,N/A,Snow,Light Snow,350,2013-03-06 18:13:00
12:33 PM,21.2,10.4,63,30.34,10.0,NNW,3.5,-,N/A,Snow,Light Snow,330,2013-03-06 18:33:00
12:52 PM,23.0,10.4,59,30.34,10.0,NW,5.8,-,N/A,,Overcast,310,2013-03-06 18:52:00
1:13 PM,24.8,10.4,54,30.33,10.0,Calm,Calm,-,N/A,,Overcast,0,2013-03-06 19:13:00
1:33 PM,24.8,10.4,54,30.32,10.0,NNW,3.5,-,0.01,,Overcast,340,2013-03-06 19:33:00
1:52 PM,24.8,10.4,54,30.32,10.0,Calm,Calm,-,0.01,,Unknown,0,2013-03-06 19:52:00
2:13 PM,24.8,10.4,54,30.31,10.0,Calm,Calm,-,N/A,,Unknown,0,2013-03-06 20:13:00
2:33 PM,24.8,10.4,54,30.31,10.0,Calm,Calm,-,N/A,,Scattered Clouds,0,2013-03-06 20:33:00
2:52 PM,24.8,10.4,54,30.31,10.0,North,3.5,-,N/A,,Unknown,360,2013-03-06 20:52:00
3:13 PM,24.8,10.4,54,30.31,10.0,Calm,Calm,-,N/A,,Unknown,0,2013-03-06 21:13:00
3:33 PM,24.8,10.4,54,30.30,10.0,North,3.5,-,N/A,,Unknown,360,2013-03-06 21:33:00
3:52 PM,24.8,10.4,54,30.30,10.0,Calm,Calm,-,N/A,,Unknown,0,2013-03-06 21:52:00
4:13 PM,26.6,10.4,51,30.30,10.0,North,3.5,-,N/A,,Unknown,360,2013-03-06 22:13:00
4:33 PM,26.6,10.4,51,30.30,10.0,Calm,Calm,-,N/A,,Clear,0,2013-03-06 22:33:00
4:52 PM,26.6,10.4,51,30.30,10.0,Calm,Calm,-,N/A,,Clear,0,2013-03-06 22:52:00
5:13 PM,26.6,10.4,51,30.30,10.0,Calm,Calm,-,N/A,,Clear,0,2013-03-06 23:13:00
5:33 PM,24.8,10.4,54,30.29,10.0,Calm,Calm,-,N/A,,Clear,0,2013-03-06 23:33:00
5:52 PM,21.2,8.6,58,30.30,10.0,Calm,Calm,-,N/A,,Clear,0,2013-03-06 23:52:00
6:13 PM,21.2,8.6,58,30.30,10.0,Calm,Calm,-,N/A,,Clear,0,2013-03-07 00:13:00
6:33 PM,17.6,8.6,68,30.30,10.0,Calm,Calm,-,N/A,,Clear,0,2013-03-07 00:33:00
6:52 PM,12.2,5.0,73,30.30,10.0,Calm,Calm,-,N/A,,Clear,0,2013-03-07 00:52:00
7:13 PM,15.8,8.6,73,30.30,10.0,Calm,Calm,-,N/A,,Clear,0,2013-03-07 01:13:00
7:32 PM,12.2,5.0,73,30.31,10.0,Calm,Calm,-,N/A,,Clear,0,2013-03-07 01:32:00
7:52 PM,10.4,3.2,73,30.31,10.0,Calm,Calm,-,N/A,,Clear,0,2013-03-07 01:52:00
8:13 PM,8.6,1.4,73,30.31,10.0,Calm,Calm,-,N/A,,Clear,0,2013-03-07 02:13:00
8:32 PM,8.6,1.4,73,30.31,10.0,Calm,Calm,-,N/A,,Clear,0,2013-03-07 02:32:00
8:52 PM,3.2,-2.2,78,30.31,10.0,Calm,Calm,-,N/A,,Clear,0,2013-03-07 02:52:00
9:13 PM,3.2,-2.2,78,30.31,10.0,Calm,Calm,-,N/A,,Clear,0,2013-03-07 03:13:00
9:32 PM,1.4,-5.8,72,30.31,10.0,Calm,Calm,-,N/A,,Clear,0,2013-03-07 03:32:00
9:52 PM,5.0,-0.4,78,30.31,10.0,Calm,Calm,-,N/A,,Clear,0,2013-03-07 03:52:00
10:13 PM,3.2,-4.0,72,30.31,10.0,Calm,Calm,-,N/A,,Clear,0,2013-03-07 04:13:00
10:32 PM,-0.4,-7.6,72,30.32,10.0,Calm,Calm,-,N/A,,Clear,0,2013-03-07 04:32:00
10:52 PM,3.2,-4.0,72,30.32,10.0,Calm,Calm,-,N/A,,Clear,0,2013-03-07 04:52:00
11:13 PM,1.4,-5.8,72,30.33,10.0,Calm,Calm,-,N/A,,Clear,0,2013-03-07 05:13:00
11:32 PM,1.4,-5.8,72,30.33,10.0,Calm,Calm,-,N/A,,Clear,0,2013-03-07 05:32:00
11:52 PM,1.4,-5.8,72,30.32,10.0,Calm,Calm,-,N/A,,Clear,0,2013-03-07 05:52:00